COSMOS 1174 DEB, 11778

Orbit data source: Space-Track

COSMOS 1174 DEB, 11778 is space debris in LEO originally from a launch on Fri, 18 Apr 1980 UTC launched from the Tyuratam Missile And Space Complex (TTMTR). Debris objects in space refer to the collection of defunct objects orbiting the Earth. Examples of debris include non-operational satellites, rocket bodies, and fragments generated from explosions, collisions, or faulty payload assembly.

Loading next visibility...
Identifier
11778, 1980-030K
Orbit
LEO
Country
Flag of CISCIS
Related business
Manufacturer
Unknown
Mission
Spacecraft
Bus & Motor
Unknown
Mass
Unknown
Launch date (UTC)
1980-04-18 (46 years ago)
Launch vehicle
Unknown
Launch site
Tyuratam Missile And Space Complex (TTMTR)
Object type
Payload
Rocket body
Debris
Shape & HBR
Unknown shape, 0.1 m
Radar Cross Section
Medium (>0.1 m² and <1 m²)

Expand to show TLE details & history
Last TLE update: 10 hours ago

TLE from 10 hours ago
0 COSMOS 1174 DEB
1 11778U 80030K   26094.24468923  .00002449  00000-0  92751-3 0  9990
2 11778  66.4761 178.1651 0432670   3.4150 356.9714 13.91619091273625
Epoch: 2026-04-04T05:52Z
TLE epoch observation values (Epoch: 2026-04-04T05:52:21.149Z)
Latitude
0.00004°
Longitude
-102.49024°
Altitude
609.569 km
Speed
7.716 km/s
True Right ascension
11h 52m 39s
True Declination
0° 00' 00"
Sunlit
Object was in full shadow at epoch
Visualization orbit readout
Latitude
Unknown
Longitude
Unknown
Altitude
Unknown
Speed
Unknown
Apparent Right ascension
Unknown
Apparent Declination
Unknown
Sunlit
N/A
Visualization observer readout
Local Sidereal Time
22:11:40
Azimuth
Unknown
Elevation
Unknown
Doppler factor
Unknown
Orbital elements
Apogee altitude
1,237.217 km
Perigee altitude
605.559 km
Semi-major axis
7,299.525 km
Eccentricity
0.04327
Inclination
66.4761°
RAAN
178.1651°
Arg. of periapsis
3.415°
True anomaly
356.69453°
Mean anomaly
356.9714°
Eccentric anomaly
356.83451°
Mean motion
3.48018 °/min
Orbital period
103.44 mins
BSTAR
0.00092751
Loading maneuver chart data...
Computing Atmospheric mass density...

Documentation

Showing up to 5 results
|